Redmond, OR

7:52 AM PST on November 13, 2019 (GMT -0800)
Roberts Field Airport

Weather History for KRDM - September, 2019

Change the Weather History Date:

Tuesday, September 17, 2019

  Actual Average Record
Temperature  
Mean Temperature 49 °F 57 °F  
Max Temperature 58 °F 76 °F 95 °F (1981)
Min Temperature 40 °F 38 °F 19 °F (1965)
Degree Days  
Heating Degree Days 16 9  
Month to date heating degree days 60 113  
Since 1 July heating degree days 107 262  
Cooling Degree Days 0 0  
Month to date cooling degree days 37 14  
Year to date cooling degree days 293 220  
Moisture  
Dew Point 43 °F    
Average Humidity 74    
Maximum Humidity 89    
Minimum Humidity 59    
Precipitation  
Precipitation 0.18 in 0.02 in 0.32 in (2010)
Month to date precipitation 0.98 0.23  
Year to date precipitation 8.44 5.96  
Sea Level Pressure  
Sea Level Pressure 29.90 in    
Wind  
Wind Speed 8 mph (SSE)    
Max Wind Speed 15 mph    
Max Gust Speed 28 mph    
Visibility 10 miles    
Events Rain    
T = Trace of Precipitation, MM = Missing Value Source: NWS Daily Summary

Daily Weather History Graph

Daily Weather History Graph

Search for Another Location

Airport or City:

Astronomy

Sep. 17, 2019 Rise Set
Actual Time 6:45 AM PDT 7:11 PM PDT
Civil Twilight 6:16 AM PDT 7:40 PM PDT
Nautical Twilight 5:42 AM PDT 8:14 PM PDT
Astronomical Twilight 5:07 AM PDT 8:50 PM PDT
Moon 9:10 PM PDT (9/17) 10:01 AM PDT (9/17)
Length of Visible Light 13h 23m
Length of Day
12h 25m
Waning Gibbous, 88% of the Moon is Illuminated
Sep 17
Waning Gibbous
Sep 21
Last Quarter
Sep 28
New
Oct 5
First Quarter
Oct 13
Full

Hourly Weather History & Observations

Time (PDT) Temp. Windchill Dew Point Humidity Pressure Visibility Wind Dir Wind Speed Gust Speed Precip Events Conditions
12:56 AM 44.1 °F - 37.0 °F 76% 29.95 in 10.0 mi Calm Calm - N/A   Overcast
1:56 AM 42.1 °F 40.2 °F 37.0 °F 82% 29.96 in 10.0 mi South 3.5 mph - N/A   Partly Cloudy
2:56 AM 41.0 °F - 37.0 °F 86% 29.96 in 10.0 mi Calm Calm - N/A   Clear
3:56 AM 42.1 °F 40.2 °F 37.9 °F 85% 29.95 in 10.0 mi ESE 3.5 mph - N/A   Clear
4:56 AM 43.0 °F - 39.0 °F 86% 29.94 in 10.0 mi Calm Calm - N/A   Scattered Clouds
5:56 AM 46.9 °F - 39.0 °F 74% 29.94 in 10.0 mi SSE 6.9 mph - N/A   Overcast
6:56 AM 48.0 °F - 39.0 °F 71% 29.94 in 10.0 mi SSE 9.2 mph - 0.00 in Rain Light Rain
7:56 AM 48.9 °F - 39.0 °F 69% 29.94 in 10.0 mi SSE 11.5 mph - 0.00 in   Overcast
8:56 AM 52.0 °F - 39.9 °F 63% 29.93 in 10.0 mi SSE 12.7 mph - N/A   Overcast
9:56 AM 54.0 °F - 39.0 °F 57% 29.93 in 10.0 mi South 12.7 mph - N/A   Overcast
10:56 AM 51.1 °F - 43.0 °F 74% 29.96 in 10.0 mi South 10.4 mph - 0.01 in Rain Light Rain
11:56 AM 50.0 °F - 45.0 °F 83% 29.94 in 10.0 mi SSE 11.5 mph - 0.07 in Rain Light Rain
12:56 PM 50.0 °F - 45.0 °F 83% 29.93 in 6.0 mi SE 9.2 mph - 0.08 in Rain Rain
1:56 PM 52.0 °F - 46.9 °F 83% 29.92 in 10.0 mi SSE 13.8 mph - 0.00 in Rain Light Rain
2:56 PM 55.0 °F - 46.0 °F 72% 29.89 in 10.0 mi SSE 12.7 mph - 0.00 in   Overcast
3:56 PM 57.0 °F - 46.9 °F 69% 29.87 in 10.0 mi SSE 15.0 mph - 0.00 in   Overcast
4:56 PM 57.0 °F - 46.0 °F 67% 29.85 in 10.0 mi South 19.6 mph 27.6 mph 0.01 in Rain Light Rain
5:56 PM 55.0 °F - 48.0 °F 77% 29.85 in 8.0 mi South 9.2 mph - 0.01 in Rain Light Rain
6:56 PM 55.0 °F - 48.0 °F 77% 29.83 in 10.0 mi South 13.8 mph - 0.00 in   Overcast
7:56 PM 54.0 °F - 48.0 °F 80% 29.81 in 10.0 mi South 15.0 mph - 0.00 in   Mostly Cloudy
8:56 PM 53.1 °F - 46.9 °F 80% 29.81 in 10.0 mi South 11.5 mph - N/A   Partly Cloudy
9:56 PM 51.1 °F - 46.0 °F 83% 29.79 in 10.0 mi South 9.2 mph - N/A   Clear
10:56 PM 53.1 °F - 44.1 °F 71% 29.80 in 10.0 mi SSW 10.4 mph - N/A   Clear
11:56 PM 52.0 °F - 45.0 °F 77% 29.80 in 10.0 mi South 6.9 mph - N/A   Mostly Cloudy